Location: *
(1.3500°S, 147.5000°W)
Time: 03:58:06
(UTC+00:00)

Envisat - Pass Details

Date: 23 June 2021
Orbit: 764 x 766 km, 98.2° (Epoch: 03 August)

Event Time Altitude Azimuth Distance (km) Brightness Sun altitude
Rises 14:08:24 0° 32° (NNE) 3,214 7.1 -24.3°
Reaches altitude 10° 14:10:58 10° 44° (NE) 2,291 6.4 -23.7°
Maximum altitude 14:15:17 29° 102° (ESE) 1,383 4.8 -22.7°
Drops below altitude 10° 14:19:36 10° 161° (SSE) 2,299 5.4 -21.7°
Sets 14:22:10 0° 172° (S) 3,228 6.1 -21.2°
